Clearfield, PA

6:49 AM EDT on May 28, 2017 (GMT -0400)
Clearfield-Lawrence

Weather History for KFIG - September, 2012

Change the Weather History Date:

Monday, September 17, 2012

  Actual Average (KDUJ) Record (KDUJ)
Temperature  
Mean Temperature 56 °F -  
Max Temperature 75 °F 69 °F 83 °F (1965)
Min Temperature 39 °F 51 °F 33 °F (1986)
Degree Days  
Heating Degree Days 9    
Growing Degree Days 6 (Base 50)    
Moisture  
Dew Point 47 °F    
Average Humidity 81    
Maximum Humidity 100    
Minimum Humidity 39    
Precipitation  
Precipitation 0.01 in - - ()
Sea Level Pressure  
Sea Level Pressure 30.06 in    
Wind  
Wind Speed 2 mph (ENE)    
Max Wind Speed 12 mph    
Max Gust Speed 16 mph    
Visibility 6 miles    
Events Fog , Rain    
Averages and records for this station are not official NWS values.
T = Trace of Precipitation, MM = Missing Value Source: NWS Daily Summary

Daily Weather History Graph

Daily Weather History Graph

Search for Another Location

Airport or City:

Trip Planner

Search our weather history database for the weather conditions in past years. The results will help you decide how hot, cold, wet, or windy it might be!

Date:

Astronomy

Sep. 17, 2012 Rise Set
Actual Time 6:56 AM EDT 7:18 PM EDT
Civil Twilight 6:29 AM EDT 7:46 PM EDT
Nautical Twilight 5:56 AM EDT 8:18 PM EDT
Astronomical Twilight 5:23 AM EDT 8:51 PM EDT
Moon 8:45 AM EDT (9/17) 7:57 PM EDT (9/17)
Length of Visible Light 13h 17m
Length of Day
12h 21m
Waxing Crescent, 3% of the Moon is Illuminated
Sep 17
Waxing Crescent
Sep 22
First Quarter
Sep 29
Full
Oct 8
Last Quarter
Oct 15
New

Hourly Weather History & Observations

Time (EDT) Temp. Windchill Dew Point Humidity Pressure Visibility Wind Dir Wind Speed Gust Speed Precip Events Conditions
12:54 AM 48.0 °F - 46.0 °F 93% 30.12 in 10.0 mi Calm Calm - N/A   Clear
1:54 AM 46.9 °F - 45.0 °F 93% 30.12 in 10.0 mi Calm Calm - N/A   Clear
2:37 AM 44.6 °F - 44.6 °F 100% 30.13 in 7.0 mi Calm Calm - N/A   Partly Cloudy
2:54 AM 46.0 °F - 44.1 °F 93% 30.12 in 8.0 mi Calm Calm - N/A   Partly Cloudy
3:32 AM 44.6 °F - 42.8 °F 93% 30.11 in 1.8 mi Calm Calm - N/A   Clear
3:42 AM 42.8 °F - 42.8 °F 100% 30.11 in 0.5 mi Calm Calm - N/A Fog Fog
3:48 AM 42.8 °F - 42.8 °F 100% 30.11 in 2.0 mi Calm Calm - N/A   Clear
3:50 AM 42.8 °F - 42.8 °F 100% 30.12 in 3.0 mi Calm Calm - N/A   Partly Cloudy
3:54 AM 44.1 °F - 43.0 °F 96% 30.12 in 5.0 mi Calm Calm - N/A   Scattered Clouds
4:54 AM 44.1 °F - 43.0 °F 96% 30.11 in 4.0 mi Calm Calm - N/A   Clear
5:06 AM 42.8 °F - 42.8 °F 100% 30.11 in 1.8 mi Calm Calm - N/A   Clear
5:10 AM 42.8 °F - 41.0 °F 93% 30.11 in 1.0 mi Calm Calm - N/A   Mist
5:17 AM 41.0 °F - 41.0 °F 100% 30.11 in 0.5 mi Calm Calm - N/A Fog Fog
5:43 AM 41.0 °F 39.0 °F 41.0 °F 100% 30.11 in 1.0 mi NNE 3.5 mph - N/A   Mist
5:54 AM 41.0 °F 38.0 °F 41.0 °F 100% 30.12 in 0.5 mi NNE 4.6 mph - N/A Fog Fog
6:03 AM 39.2 °F 37.0 °F 39.2 °F 100% 30.11 in 0.2 mi NNE 3.5 mph - N/A Fog Fog
6:54 AM 41.0 °F 39.0 °F 39.9 °F 96% 30.13 in 0.2 mi North 3.5 mph - N/A Fog Fog
8:54 AM 45.0 °F 43.5 °F 45.0 °F 100% 30.14 in 0.2 mi NE 3.5 mph - N/A Fog Fog
9:31 AM 48.2 °F - 48.2 °F 100% 30.12 in 1.2 mi NE 4.6 mph - N/A   Overcast
9:34 AM 48.2 °F - 48.2 °F 100% 30.12 in 3.0 mi ENE 4.6 mph - N/A   Mostly Cloudy
9:54 AM 50.0 °F - 48.9 °F 96% 30.12 in 10.0 mi NE 4.6 mph - N/A   Partly Cloudy
11:54 AM 69.1 °F - 46.9 °F 45% 30.07 in 10.0 mi Variable 6.9 mph - N/A   Clear
12:54 PM 71.1 °F - 46.0 °F 41% 30.06 in 10.0 mi SSW 8.1 mph 16.1 mph N/A   Clear
1:54 PM 72.0 °F - 46.0 °F 40% 30.03 in 10.0 mi South 10.4 mph 16.1 mph N/A   Clear
2:54 PM 73.0 °F - 46.9 °F 39% 30.00 in 10.0 mi Variable 4.6 mph - N/A   Clear
3:54 PM 73.0 °F - 48.9 °F 42% 29.98 in 10.0 mi Variable 4.6 mph 16.1 mph N/A   Clear
4:54 PM 73.0 °F - 48.9 °F 42% 29.97 in 10.0 mi South 11.5 mph - N/A   Clear
5:54 PM 71.1 °F - 48.0 °F 44% 29.97 in 10.0 mi Variable 4.6 mph - N/A   Partly Cloudy
6:54 PM 68.0 °F - 48.9 °F 50% 29.97 in 10.0 mi Variable 3.5 mph - N/A   Clear
7:54 PM 66.9 °F - 51.1 °F 57% 29.96 in 10.0 mi Variable 4.6 mph - N/A   Clear
8:54 PM 66.0 °F - 54.0 °F 65% 29.95 in 10.0 mi South 3.5 mph - N/A   Clear
9:54 PM 64.9 °F - 55.9 °F 73% 29.94 in 10.0 mi Variable 4.6 mph - N/A   Clear
10:54 PM 64.0 °F - 57.0 °F 78% 29.93 in 10.0 mi Calm Calm - N/A   Partly Cloudy
11:33 PM 64.4 °F - 57.2 °F 77% 29.93 in 10.0 mi Calm Calm - N/A   Overcast
11:54 PM 63.0 °F - 59.0 °F 87% 29.91 in 7.0 mi SSW 3.5 mph - 0.01 in Rain Light Rain